Terminal Aerodrome Forecast
Issued by NWS

Current Version | Previous Version | Text Only | Print | Product List | Glossary On
Versions: 1 2 3 4 5 6 7 8 9 10 11 12 13 14 15 16 17 18 19 20 21 22 23 24 25 26 27 28 29 30 31 32 33 34 35 36 37 38 39 40 41 42 43 44 45 46 47 48 49 50
000
FTUS41 KCTP 190317 AAA
TAFJST
TAF AMD
KJST 190317Z 1903/1924 03004KT P6SM SKC
     FM190600 08003KT P6SM SCT015
      TEMPO 1910/1912 BKN015
     FM191300 13007KT P6SM SCT050=

USA.gov is the U.S. government's official web portal to all federal, state and local government web resources and services.